Weather History for La Crosse, WI

Change the Weather History Date:

Wednesday, January 9, 2013

  Actual Average Record
Temperature  
Mean Temperature 30 °F 17 °F  
Max Temperature 38 °F 25 °F 53 °F (2002)
Min Temperature 22 °F 9 °F -31 °F (1875)
Degree Days  
Heating Degree Days 35 48  
Month to date heating degree days 407 428  
Since 1 July heating degree days 3097 3272  
Cooling Degree Days 0 0  
Month to date cooling degree days 0 0  
Year to date cooling degree days 0 0  
Moisture  
Dew Point 22 °F    
Average Humidity 67    
Maximum Humidity 81    
Minimum Humidity 52    
Precipitation  
Precipitation 0.00 in 0.03 in 0.74 in (1929)
Month to date precipitation T 0.30  
Year to date precipitation T 0.30  
Snow  
Snow 0.00 in 0.30 in 8.10 in (1929)
Month to date snowfall T 2.6  
Since 1 July snowfall 18.4 18.2  
Snow Depth 4.00 in    
Sea Level Pressure  
Sea Level Pressure 30.27 in    
Wind  
Wind Speed 9 mph (SW)    
Max Wind Speed 20 mph    
Max Gust Speed 28 mph    
Visibility 10 miles    
Events      
T = Trace of Precipitation, MM = Missing Value Source: NWS Daily Summary

Daily Weather History Graph

Daily Weather History Graph

Search for Another Location

Airport:

Trip Planner

Search our weather history database for the weather conditions in past years. The results will help you decide how hot, cold, wet, or windy it might be!

Date:

Astronomy

Jan. 09, 2013 Rise Set
Actual Time 7:38 AM CST 4:46 PM CST
Civil Twilight 7:06 AM CST 5:18 PM CST
Nautical Twilight 6:30 AM CST 5:54 PM CST
Astronomical Twilight 5:55 AM CST 6:29 PM CST
Moon 5:18 AM CST (1/9) 2:48 PM CST (1/9)
Length of Visible Light 10h 12m
Length of Day
9h 08m
Waning Crescent, 6% of the Moon is Illuminated
Jan 9
Waning Crescent
Jan 11
New
Jan 18
First Quarter
Jan 26
Full
Feb 3
Last Quarter

Hourly Weather History & Observations

Time (CST) Temp. Windchill Dew Point Humidity Pressure Visibility Wind Dir Wind Speed Gust Speed Precip Events Conditions
1:53 AM 32.0 °F 23.6 °F 26.1 °F 79% 30.00 in 10.0 mi WSW 10.4 mph - N/A   Scattered Clouds
2:53 AM 30.0 °F 24.1 °F 25.0 °F 82% 30.03 in 10.0 mi South 5.8 mph - N/A   Clear
3:53 AM 30.9 °F 24.3 °F 25.0 °F 79% 30.05 in 10.0 mi SSE 6.9 mph - N/A   Mostly Cloudy
4:53 AM 30.0 °F 20.5 °F 24.1 °F 79% 30.05 in 10.0 mi South 11.5 mph - N/A   Clear
5:53 AM 30.0 °F 22.4 °F 24.1 °F 79% 30.06 in 10.0 mi SW 8.1 mph - N/A   Clear
6:53 AM 32.0 °F 24.8 °F 24.1 °F 73% 30.12 in 10.0 mi SW 8.1 mph - N/A   Clear
7:53 AM 33.1 °F 26.1 °F 23.0 °F 66% 30.14 in 10.0 mi West 8.1 mph - N/A   Clear
8:53 AM 34.0 °F 25.5 °F 23.0 °F 64% 30.17 in 10.0 mi West 11.5 mph - N/A   Clear
9:53 AM 35.1 °F 25.9 °F 21.9 °F 59% 30.19 in 10.0 mi West 13.8 mph - N/A   Clear
11:53 AM 36.0 °F 26.7 °F 21.0 °F 55% 30.27 in 10.0 mi West 15.0 mph 25.3 mph N/A   Clear
12:53 PM 37.0 °F 27.4 °F 21.0 °F 52% 30.30 in 10.0 mi West 17.3 mph - N/A   Clear
1:53 PM 37.9 °F 30.9 °F 21.0 °F 51% 30.34 in 10.0 mi West 10.4 mph 27.6 mph N/A   Clear
2:53 PM 37.0 °F 28.9 °F 21.9 °F 54% 30.40 in 10.0 mi West 12.7 mph - N/A   Clear
3:53 PM 35.1 °F 29.3 °F 21.9 °F 59% 30.41 in 10.0 mi NW 6.9 mph - N/A   Clear
4:53 PM 32.0 °F 27.5 °F 19.9 °F 61% 30.42 in 10.0 mi West 4.6 mph - N/A   Clear
5:53 PM 28.0 °F - 19.0 °F 69% 30.43 in 10.0 mi Calm Calm - N/A   Clear
6:53 PM 27.0 °F - 19.9 °F 75% 30.43 in 10.0 mi Calm Calm - N/A   Clear
7:53 PM 23.0 °F 14.7 °F 18.0 °F 81% 30.44 in 10.0 mi SSW 6.9 mph - N/A   Clear
8:53 PM 24.1 °F 17.0 °F 19.0 °F 81% 30.43 in 10.0 mi SSE 5.8 mph - N/A   Clear
9:53 PM 27.0 °F 18.0 °F 21.0 °F 78% 30.42 in 10.0 mi SSE 9.2 mph - N/A   Clear
10:53 PM 24.1 °F 17.0 °F 19.0 °F 81% 30.43 in 10.0 mi SSE 5.8 mph - N/A   Clear
11:53 PM 25.0 °F 17.1 °F 19.9 °F 81% 30.46 in 10.0 mi SSE 6.9 mph - N/A   Clear